Weather reports worldwide

Advertisment
Gustavsfors, Sweden (2426): temperature & dewpoint: 17.10.2019 21:00:00 - 23.10.2019 21:00:00 (CEST)Gustavsfors, Sweden (2426): wind speed & gusts: 17.10.2019 21:00:00 - 23.10.2019 21:00:00 (CEST)Gustavsfors, Sweden (2426): wind direction: 17.10.2019 21:00:00 - 23.10.2019 21:00:00 (CEST)Gustavsfors, Sweden (2426): reduced air pressure: 17.10.2019 21:00:00 - 23.10.2019 21:00:00 (CEST)Gustavsfors, Sweden (2426): visibility: 17.10.2019 21:00:00 - 23.10.2019 21:00:00 (CEST)Gustavsfors, Sweden (2426): precipitation: 17.10.2019 21:00:00 - 23.10.2019 21:00:00 (CEST)
Date & Time tt [°C] td [°C] ff [km/h] ff [kn] fx [km/h] fx [kn] dd ppp [hPa] vv [km] rr [mm]
23.10.2019 21:00:00 9,0 5,9 9 5 21 11 SSW 1011,4 31 0,0
23.10.2019 20:00:00 9,5 5,9 8 5 20 11 SSW 1011,3 35 0,0
23.10.2019 19:00:00 9,5 6,0 7 4 16 9 SSW 1011,0 34 0,0
23.10.2019 18:00:00 9,7 6,0 8 4 18 10 SSW 1010,9 35 0,0
23.10.2019 17:00:00 10,3 6,4 8 4 23 13 SW 1011,0 40 0,0
23.10.2019 16:00:00 10,6 6,7 9 5 26 14 SW 1011,0 40 0,0
23.10.2019 15:00:00 10,3 7,0 9 5 23 13 SSW 1011,3 50 0,0
23.10.2019 14:00:00 10,0 7,2 10 6 21 11 SSW 1011,8 41 0,0
23.10.2019 13:00:00 9,7 7,8 7 4 14 7 S 1011,8 48 0,0
23.10.2019 12:00:00 9,4 7,8 7 4 14 8 S 1011,6 42 0,0
23.10.2019 11:00:00 9,1 7,7 8 4 14 7 S 1011,4 35 0,0
23.10.2019 10:00:00 8,6 7,5 6 3 16 8 SSW 1011,6 29 0,0
23.10.2019 09:00:00 7,7 7,3 5 3 10 6 SSW 1011,6 23 0,0
23.10.2019 08:00:00 4,2 4,1 0 0 4 2 N 1011,2 16 0,0
23.10.2019 07:00:00 2,6 2,5 0 0 3 2 N 1011,3 17 0,0
23.10.2019 06:00:00 2,2 2,1 0 0 4 2 N 1011,4 17 0,0
23.10.2019 05:00:00 2,0 1,9 0 0 5 3 N 1011,3 12 0,0
23.10.2019 04:00:00 2,6 2,5 0 0 5 3 N 1011,4 11 0,0
23.10.2019 03:00:00 4,2 3,9 0 0 8 4 N 1011,3 11 0,0
23.10.2019 02:00:00 6,3 5,3 0 0 10 5 N 1010,9 24 0,0
23.10.2019 01:00:00 8,1 6,1 5 3 14 8 S 1010,4 32 0,0
23.10.2019 00:00:00 8,3 6,1 7 4 19 11 SSW 1009,8 34 0,0
22.10.2019 23:00:00 7,9 5,7 8 4 23 13 WSW 1009,4 36 0,0
22.10.2019 22:00:00 7,9 5,5 12 7 23 12 SW 1009,4 37 0,0
22.10.2019 21:00:00 7,7 5,2 7 4 23 13 WSW 1008,6 38 0,0
22.10.2019 20:00:00 8,0 5,1 10 5 24 13 SW 1008,5 44 0,0
22.10.2019 19:00:00 8,0 4,9 14 7 37 20 SW 1008,5 47 0,0
22.10.2019 18:00:00 8,2 4,8 18 10 36 20 SW 1007,7 50 0,0
22.10.2019 17:00:00 8,3 4,7 18 10 39 21 SW 1007,5 50 0,0
22.10.2019 16:00:00 8,4 4,6 19 10 43 23 SW 1007,8 50 0,0
22.10.2019 15:00:00 8,4 4,6 9 5 32 17 SW 1008,3 50 0,0
22.10.2019 14:00:00 8,4 4,4 11 6 31 17 SW 1008,3 50 0,0
22.10.2019 13:00:00 8,2 4,8 14 7 25 13 SW 1008,4 50 0,0
22.10.2019 12:00:00 7,7 5,0 10 5 25 13 SW 1009,0 47 0,0
22.10.2019 11:00:00 6,7 4,9 8 5 21 11 SSW 1009,1 45 0,0
22.10.2019 10:00:00 5,9 4,5 7 4 22 12 SW 1009,4 50 0,0
22.10.2019 09:00:00 5,3 4,3 10 6 21 11 S 1009,6 50 0,0
22.10.2019 08:00:00 4,8 4,1 9 5 16 9 S 1009,9 50 0,0
22.10.2019 07:00:00 4,5 3,9 6 4 13 7 S 1010,4 50 0,0
22.10.2019 06:00:00 4,1 3,5 7 4 19 11 SSW 1011,1 50 0,0
22.10.2019 05:00:00 4,2 3,8 12 6 26 14 SSW 1011,6 37 0,0
22.10.2019 04:00:00 3,9 3,6 12 7 27 15 SSW 1012,3 13 0,0
22.10.2019 03:00:00 3,6 3,3 9 5 22 12 SSW 1013,3 3,5 0,0
22.10.2019 02:00:00 3,1 3,0 12 7 22 12 SSW 1014,2 4,2 0,0
22.10.2019 01:00:00 2,7 2,4 12 7 19 10 SSW 1015,4 3,1 0,0
22.10.2019 00:00:00 2,6 2,0 7 4 21 11 SW 1016,1 50 0,1
21.10.2019 23:00:00 2,7 2,4 9 5 22 12 SW 1016,6 2,7 0,0
21.10.2019 22:00:00 3,0 2,7 6 3 22 12 SW 1017,5 5 0,0
21.10.2019 21:00:00 3,1 2,7 12 6 22 12 SW 1017,9 12 0,0
21.10.2019 20:00:00 3,7 3,1 6 4 17 9 SW 1018,3 4,8 0,0
21.10.2019 19:00:00 4,3 3,7 7 4 17 9 SW 1018,3 7 0,0
21.10.2019 18:00:00 4,5 3,9 4 2 11 6 SSW 1018,7 9 0,0
21.10.2019 17:00:00 4,7 3,6 4 2 14 8 SSW 1019,2 50 0,0
21.10.2019 16:00:00 4,8 3,3 7 4 16 8 SSW 1019,8 50 0,0
21.10.2019 15:00:00 4,8 3,3 4 2 11 6 SSW 1020,6 34 0,0
21.10.2019 14:00:00 4,3 3,0 3 1 10 5 SE 1020,9 9 0,0
21.10.2019 13:00:00 3,8 1,8 2 1 6 3 NNE 1020,9 50 0,0
21.10.2019 12:00:00 3,2 1,4 0 0 6 3 N 1021,0 50 0,0
21.10.2019 11:00:00 2,5 1,3 0 0 5 3 N 1021,2 50 0,0
21.10.2019 10:00:00 1,7 1,0 0 0 4 2 N 1021,1 49 0,0
21.10.2019 09:00:00 0,8 0,5 0 0 6 3 N 1020,6 25 0,0
21.10.2019 08:00:00 0,4 0,0 0 0 5 3 N 1020,1 50 0,0
21.10.2019 07:00:00 1,1 0,5 0 0 7 4 N 1019,7 50 0,0
21.10.2019 06:00:00 1,8 1,1 0 0 5 3 N 1019,2 50 0,0
21.10.2019 05:00:00 2,1 1,4 0 0 6 3 N 1018,8 50 0,0
21.10.2019 04:00:00 2,5 1,8 0 0 4 2 N 1018,3 50 0,0
21.10.2019 03:00:00 2,7 2,0 0 0 9 5 N 1017,3 50 0,0
21.10.2019 02:00:00 2,7 2,1 0 0 9 5 N 1016,9 50 0,0
21.10.2019 01:00:00 2,7 2,1 3 2 10 6 N 1016,6 37 0,0
21.10.2019 00:00:00 2,7 1,8 5 3 14 7 NNE 1015,8 28 0,0
20.10.2019 23:00:00 2,7 2,0 3 2 13 7 NNE 1015,3 50 0,0
20.10.2019 22:00:00 3,1 2,4 3 2 13 7 NNE 1014,6 44 0,0
20.10.2019 21:00:00 3,2 2,3 4 2 16 9 N 1014,0 13 0,0
20.10.2019 20:00:00 3,4 2,5 5 3 16 9 NNE 1013,2 50 0,0
20.10.2019 19:00:00 3,7 3,1 4 2 18 10 NNE 1012,6 44 0,0
20.10.2019 18:00:00 4,6 3,9 6 3 18 10 NNE 1011,9 31 0,1
20.10.2019 17:00:00 5,5 5,1 4 2 14 8 NNW 1011,0 7 0,4
20.10.2019 16:00:00 6,2 5,6 3 2 10 6 NNE 1010,4 39 0,1
20.10.2019 15:00:00 6,3 5,7 5 3 18 10 NE 1010,2 6 0,7
20.10.2019 14:00:00 6,2 5,3 7 4 22 12 NNE 1009,9 15 0,3
20.10.2019 13:00:00 6,3 5,4 7 4 21 11 NE 1009,6 11 0,4
20.10.2019 12:00:00 6,4 5,4 8 4 23 13 NNE 1009,3 16 0,5
20.10.2019 11:00:00 6,3 5,4 9 5 21 12 NNE 1009,1 26 0,3
20.10.2019 10:00:00 6,1 5,4 10 5 22 12 NE 1009,2 15 1,5
20.10.2019 09:00:00 5,9 5,2 6 4 18 10 NE 1009,2 8 2,7
20.10.2019 08:00:00 6,1 5,2 7 4 20 11 ENE 1008,8 12 1,8
20.10.2019 07:00:00 6,5 5,4 9 5 26 14 ENE 1008,7 17 1,3
20.10.2019 06:00:00 7,6 6,7 9 5 23 12 ENE 1008,1 11 0,6
20.10.2019 05:00:00 8,6 7,8 3 2 9 5 NE 1007,8 16 0,0
20.10.2019 04:00:00 8,7 7,9 3 2 11 6 E 1007,9 17 0,0
20.10.2019 03:00:00 8,0 7,9 0 0 3 2 N 1008,0 13 0,0
20.10.2019 02:00:00 7,8 7,7 0 0 3 2 N 1007,9 8 0,0
20.10.2019 01:00:00 7,9 7,6 0 0 5 3 N 1007,8 6 0,0
20.10.2019 00:00:00 8,3 7,7 0 0 5 3 N 1007,3 34 0,0
19.10.2019 23:00:00 8,2 7,6 0 0 5 3 N 1007,0 38 0,0
19.10.2019 22:00:00 8,6 7,4 4 2 13 7 SW 1006,3 41 0,0
19.10.2019 21:00:00 8,7 7,5 6 4 15 8 SSW 1005,6 50 0,0
19.10.2019 20:00:00 8,7 7,6 9 5 13 7 S 1004,6 50 0,0
19.10.2019 19:00:00 8,8 7,6 7 4 11 6 S 1003,8 50 0,0
19.10.2019 18:00:00 9,2 7,5 7 4 15 8 S 1003,1 50 0,0
19.10.2019 17:00:00 9,7 8,0 10 5 17 9 S 1002,3 50 0,0
19.10.2019 16:00:00 10,1 8,2 10 5 22 12 S 1001,9 50 0,0
19.10.2019 15:00:00 10,5 8,3 11 6 21 11 S 1001,3 49 0,0
19.10.2019 14:00:00 10,1 9,2 12 6 18 10 S 1000,9 12 1,1
19.10.2019 13:00:00 10,2 9,0 11 6 21 11 S 1000,7 15 0,0
19.10.2019 12:00:00 10,2 9,3 9 5 31 17 SSW 1000,2 17 0,7
19.10.2019 11:00:00 9,5 8,6 10 5 26 14 SSW 999,9 9 0,1
19.10.2019 10:00:00 9,3 8,7 9 5 24 13 SSW 999,5 12 0,4
19.10.2019 09:00:00 9,0 8,5 8 5 22 12 SSW 998,8 15 1,0
19.10.2019 08:00:00 8,9 8,6 7 4 12 6 S 998,4 11 0,3
19.10.2019 07:00:00 8,0 7,9 0 0 5 3 N 998,2 6 0,2
19.10.2019 06:00:00 8,1 7,8 0 0 12 7 N 998,1 35 1,6
19.10.2019 05:00:00 7,7 7,6 0 0 9 5 N 998,2 6 1,7
19.10.2019 04:00:00 7,9 7,5 5 3 13 7 ENE 998,8 9 2,5
19.10.2019 03:00:00 7,8 7,4 5 3 10 6 NNE 999,7 7 1,9
19.10.2019 02:00:00 8,0 6,9 3 1 14 7 NNE 1000,7 24 0,0
19.10.2019 01:00:00 7,9 6,8 5 3 16 9 ENE 1001,6 25 0,0
19.10.2019 00:00:00 8,0 6,6 4 2 14 8 ENE 1002,7 38 0,0
18.10.2019 23:00:00 7,8 7,0 2 1 11 6 NE 1003,5 25 0,0
18.10.2019 22:00:00 7,7 6,9 3 1 7 4 NNE 1004,4 38 0,0
18.10.2019 21:00:00 6,8 6,7 0 0 5 3 N 1005,2 12 0,0
18.10.2019 20:00:00 6,8 6,7 4 2 6 3 NNE 1005,6 12 0,0
18.10.2019 19:00:00 7,3 7,0 0 0 3 1 N 1006,2 20 0,0
18.10.2019 18:00:00 8,0 7,6 0 0 4 2 N 1006,3 25 0,0
18.10.2019 17:00:00 8,9 7,3 0 0 3 1 N 1006,4 24 0,0
18.10.2019 16:00:00 9,8 6,7 0 0 11 6 N 1006,9 45 0,0
18.10.2019 15:00:00 10,1 6,4 2 1 10 5 SSW 1007,0 45 0,0
18.10.2019 14:00:00 10,4 6,9 3 2 17 9 WSW 1007,4 50 0,0
18.10.2019 13:00:00 10,6 7,3 6 3 14 8 S 1007,8 41 0,0
18.10.2019 12:00:00 9,5 7,1 9 5 15 8 SW 1008,2 40 0,0
18.10.2019 11:00:00 9,1 7,7 7 4 14 8 SW 1008,3 40 0,0
18.10.2019 10:00:00 8,8 8,0 6 3 12 6 SW 1008,2 32 0,0
18.10.2019 09:00:00 8,0 7,7 3 1 7 4 SW 1008,1 21 0,0
18.10.2019 08:00:00 7,7 7,4 3 2 10 6 S 1007,8 21 0,0
18.10.2019 07:00:00 7,3 7,0 0 0 8 4 N 1007,6 28 0,0
18.10.2019 06:00:00 7,0 6,9 0 0 8 4 N 1007,8 25 0,0
18.10.2019 05:00:00 7,0 6,7 6 3 15 8 S 1007,9 35 0,1
18.10.2019 04:00:00 6,8 6,5 3 2 7 4 S 1008,2 50 0,0
18.10.2019 03:00:00 6,3 5,9 2 1 6 4 SSE 1008,5 50 0,0
18.10.2019 02:00:00 5,9 5,5 3 2 12 7 E 1008,6 6 0,2
18.10.2019 01:00:00 5,7 5,3 2 1 11 6 E 1008,8 5 0,4
18.10.2019 00:00:00 5,7 5,3 4 2 11 6 ENE 1009,2 4,8 0,2
17.10.2019 23:00:00 5,8 4,9 4 2 10 5 E 1009,5 19 0,0
17.10.2019 22:00:00 5,7 4,8 3 1 6 4 ENE 1009,7 50 0,0
17.10.2019 21:00:00 5,6 4,7 0 0 8 4 N 1009,9 35 0,0

tt = temperature
td = dewpoint
ff = wind speed
fx = gusts
dd = wind direction
ppp = reduced air pressure
vv = visibility
rr = precipitation

Next stations